Location: Barcelona
(41.3829°N, 2.1774°E)
Time: 21:32:27
(UTC+00:00)

ISS - Pass Details

Date: 07 July 2025
Orbit: 413 x 417 km, 51.6° (Epoch: 13 July)

Event Time Altitude Azimuth Distance (km) Brightness Sun altitude
Rises 23:59:57 0° 289° (WNW) 2,353 0.3 -26.0°
Reaches altitude 10° 00:02:41 10° 313° (NW) 1,492 -0.5 -26.0°
Maximum altitude 00:04:47 15° 351° (N) 1,206 -0.6 -26.0°
Drops below altitude 10° 00:06:53 10° 30° (NNE) 1,495 -0.2 -26.0°
Sets 00:09:37 0° 54° (NE) 2,360 0.6 -26.0°
